Location: Colossi of Memnon
(25.7167°N, 32.6167°E)
Time: 11:31:47
(UTC+00:00)

Okean O Rocket - Pass Details

Date: 05 March 2021
Orbit: 623 x 644 km, 98.2° (Epoch: 09 April)

Event Time Altitude Azimuth Distance (km) Brightness Sun altitude
Rises 03:43:06 0° 25° (NNE) 2,927 5.3 -6.6°
Reaches altitude 10° 03:45:29 10° 35° (NE) 2,019 4.7 -6.1°
Maximum altitude 03:49:26 32° 99° (E) 1,083 3.8 -5.2°
Drops below altitude 10° 03:53:23 10° 163° (SSE) 2,021 4.5 -4.3°
Sets 03:55:46 0° 173° (S) 2,929 5.2 -3.8°
